Regional Weather Roundup
Issued by NWS

Home | Current Version | Previous Version | Graphics & Text | Print | Product List | Glossary On
Versions: 1 2 3 4 5 6 7 8 9 10 11 12 13 14 15 16 17 18 19 20 21 22 23 24 25 26 27
000
ASUS45 KSLC 181410
RWRUT

UTAH REGIONAL WEATHER ROUNDUP
NATIONAL WEATHER SERVICE SALT LAKE CITY UT
800 AM MDT WED OCT 18 2017

UTZ001>011-023>025-181500-

NORTHERN UTAH

CITY           SKY/WX    TMP DP  RH WIND       PRES   REMARKS
BRIGHAM CITY   CLEAR     32  24  72 CALM      30.20R
DUGWAY         PTCLDY    25  12  58 E3        30.20
HILL AFB       CLEAR     43  16  33 E15       30.19R
LOGAN          CLEAR     29  24  82 SW5       30.21R WCI  24
OGDEN          CLEAR     40  19  43 CALM      30.18R
SALT LAKE CITY PTCLDY    42  33  70 SE7       30.18S
TOOELE VALLEY  PTCLDY    36  28  75 S6        30.19S WCI  31
WENDOVER       NOT AVBL
WEST JORDAN    PTCLDY    40  26  56 SW6       30.20S

$$

UTZ011>015-024>027-181500-

CENTRAL/NORTHEAST UTAH

CITY           SKY/WX    TMP DP  RH WIND       PRES   REMARKS
PROVO AIRPORT  PTCLDY    36  27  69 NE5       30.22R WCI  32
MOAB/CANYONLAN MOCLDY    44  14  29 SE3       30.18R
DELTA          MOCLDY    34  21  60 W6        30.19R WCI  29
PRICE          PTCLDY    39  11  31 NE6       30.23R WCI  35
RICHFIELD      CLEAR     30  21  69 N6        30.24R WCI  24
ROOSEVELT      CLOUDY    32  21  64 W3        30.24R
VERNAL         CLOUDY    34  17  50 NW6       30.23R WCI  29

$$

UTZ013>016-019>022-027-181500-

SOUTHERN UTAH

CITY           SKY/WX    TMP DP  RH WIND       PRES   REMARKS
BRYCE CANYON   PTCLDY    32  17  54 W5        30.31S WCI  27
CEDAR CITY     PTCLDY    39  18  42 S7        30.18F WCI  34
MILFORD        MOCLDY    34  15  46 NW5       30.19R WCI  30
ST GEORGE      SUNNY     51  22  31 CALM      30.10R
HANKSVILLE     MOCLDY    36  18  48 CALM      30.22R
KANAB          CLEAR     41  19  42 NE3       30.21S
BLANDING         N/A     45  13  28 CALM      30.31S

$$

REGIONAL REPORTS     COLORADO/ARIZONA

CITY           SKY/WX    TMP DP  RH WIND       PRES   REMARKS
CRAIG, CO      CLOUDY    23  17  78 SW3       30.28R
GRAND JUNCTION CLOUDY    39  16  39 E8        30.22R WCI  33
RIFLE, CO      CLOUDY    31  18  58 CALM      30.28R
MONTROSE, CO   CLOUDY    32  16  51 SE7       30.29R WCI  26
CORTEZ, CO     CLOUDY    30  17  58 E3        30.27R
COLORADO CITY    N/A     39  27  60 SE6       30.20R WCI  35
PAGE, AZ       PTCLDY    51  21  30 CALM      30.15R
GRAND CANYON   CLEAR     32  19  58 CALM      30.27R
KINGMAN, AZ    CLEAR     52  24  33 SW3       30.07R
FLAGSTAFF, AZ  CLEAR     34  22  61 CALM      30.29S

$$

REGIONAL REPORTS    NEVADA/IDAHO/WYOMING

CITY           SKY/WX    TMP DP  RH WIND       PRES   REMARKS
LAS VEGAS, NV  MOCLDY    64  18  17 S5        30.01R
ELY, NY        MOCLDY    27   1  32 S10       30.26R WCI  17
ELKO, NV       CLOUDY    23  13  65 CALM      30.24S
POCATELLO, ID  CLOUDY    37  24  59 CALM      30.18R
BURLEY, ID     CLEAR     38  22  52 SW3       30.16R
FORT BRIDGER,    N/A     47   8  20 W9        30.30R
EVANSTON, WY   CLOUDY    44   7  21 S6        30.28R
ROCK SPRINGS,  CLOUDY    39   6  25 SW12      30.25S WCI  32

$$




USA.gov is the U.S. government's official web portal to all federal, state and local government web resources and services.